GW6202 Weather Reports


time (UTC)temp
F
wind
direction
speed
knots
gust
knots
rain 1hr
in
rain 24hr
in
rain mn
in
humidity
%
barometer
mb
20260506222250 45 291 0.0 0.9 0.00 0.54 0.54 97 1009.7
20260506221748 45 332 1.7 1.7 0.00 0.54 0.54 97 1009.8
20260506221246 45 7 0.9 0.9 0.00 0.54 0.54 97 1009.7
20260506220743 45 303 1.7 2.6 0.00 0.54 0.54 97 1009.8
20260506220237 45 11 1.7 1.7 0.00 0.54 0.54 97 1009.8
20260506215735 45 133 1.7 1.7 0.00 0.54 0.54 97 1009.6
20260506215230 45 67 2.6 2.6 0.00 0.54 0.54 98 1009.7
20260506214727 45 111 0.9 0.9 0.00 0.54 0.54 98 1009.7
20260506214224 46 170 3.5 4.3 0.00 0.54 0.54 98 1009.7
20260506213722 46 343 0.0 0.0 0.00 0.54 0.54 98 1009.6
20260506213219 46 327 0.0 0.0 0.00 0.54 0.54 98 1009.4
20260506212716 46 269 0.9 1.7 0.00 0.54 0.54 98 1009.4
20260506212212 46 169 1.7 1.7 0.00 0.54 0.54 98 1009.1
20260506211708 46 121 0.9 0.9 0.00 0.54 0.54 99 1009.1
20260506211204 46 124 2.6 2.6 0.00 0.54 0.54 99 1009.0
20260506210701 46 196 0.9 1.7 0.00 0.54 0.54 99 1008.8
20260506210158 46 33 0.9 1.7 0.00 0.54 0.54 99 1008.8
20260506205655 46 40 1.7 2.6 0.00 0.54 0.54 99 1008.6
20260506205150 46 113 0.9 0.9 0.00 0.54 0.54 99 1008.8
20260506204648 46 279 0.0 0.9 0.07 0.54 0.54 99 1008.5
20260506204144 46 19 0.9 1.7 0.07 0.54 0.54 99 1008.4
20260506203643 46 232 0.9 0.9 0.00 0.53 0.53 99 1008.3
20260506203139 46 43 0.9 1.7 0.00 0.53 0.53 99 1008.0
20260506202637 46 63 2.6 2.6 0.00 0.53 0.53 99 1008.0
20260506202133 46 350 1.7 2.6 0.00 0.53 0.53 99 1008.0
20260506201630 46 356 0.0 0.9 0.00 0.53 0.53 99 1008.0
20260506201127 46 34 3.5 5.2 0.00 0.53 0.53 99 1007.9
20260506200623 47 13 0.9 0.9 0.05 0.53 0.53 99 1008.2
20260506200120 46 354 0.0 0.9 0.05 0.53 0.53 99 1008.0
20260506195617 47 278 2.6 2.6 0.00 0.52 0.52 99 1007.8
20260506195113 47 23 1.7 2.6 0.00 0.52 0.52 99 1008.2
20260506194611 47 225 1.7 2.6 0.07 0.52 0.52 99 1007.8
20260506194107 47 270 0.9 1.7 0.07 0.52 0.52 99 1008.0
20260506193605 47 260 0.9 1.7 0.00 0.51 0.51 99 1007.9
20260506193102 47 283 3.5 4.3 0.05 0.51 0.51 99 1007.7
20260506192559 47 313 0.0 0.0 0.05 0.51 0.51 99 1007.5
20260506192054 47 300 0.0 0.0 0.00 0.50 0.50 99 1007.5
20260506191551 47 303 0.0 0.9 0.00 0.50 0.50 99 1007.7
20260506191047 47 329 0.0 0.9 0.07 0.50 0.50 99 1007.4
20260506190544 47 242 2.6 2.6 0.07 0.50 0.50 99 1007.3
20260506190041 47 241 0.9 1.7 0.00 0.49 0.49 99 1007.4
20260506185539 47 357 0.0 0.0 0.00 0.49 0.49 98 1007.5
20260506185035 48 336 0.0 0.9 0.00 0.49 0.49 99 1007.1
20260506184533 48 257 0.0 0.9 0.00 0.49 0.49 98 1007.3
20260506184030 48 314 0.9 1.7 0.00 0.49 0.49 99 1007.3
20260506183525 48 16 0.9 0.9 0.00 0.49 0.49 99 1007.3
20260506183022 48 339 0.0 0.0 0.00 0.49 0.49 99 1007.1
20260506182520 48 29 1.7 1.7 0.00 0.49 0.49 99 1006.9
20260506182017 48 334 0.0 0.0 0.00 0.49 0.49 99 1007.0
20260506181515 49 18 3.5 6.1 0.00 0.49 0.49 98 1006.8
20260506181011 49 299 1.7 1.7 0.00 0.49 0.49 98 1007.0
20260506180508 50 325 2.6 2.6 0.00 0.49 0.49 98 1006.7
20260506180005 50 309 4.3 7.0 0.05 0.49 0.49 98 1006.5
20260506175501 51 4 2.6 4.3 0.05 0.49 0.49 98 1006.5
20260506174957 53 355 3.5 4.3 0.00 0.48 0.48 98 1006.4
20260506174456 56 44 0.9 2.6 0.00 0.48 0.48 98 1006.0
20260506173952 56 306 0.9 1.7 0.00 0.48 0.48 98 1006.1
20260506173450 56 285 1.7 1.7 0.00 0.48 0.48 98 1006.3
20260506172946 56 234 2.6 4.3 0.00 0.48 0.48 98 1006.3
20260506172444 56 257 3.5 5.2 0.00 0.48 0.48 98 1006.2
20260506171940 56 186 2.6 5.2 0.00 0.48 0.48 98 1006.1
20260506171437 56 169 3.5 4.3 0.07 0.48 0.48 98 1006.2
20260506170935 56 230 2.6 4.3 0.07 0.48 0.48 98 1006.3
20260506170431 56 190 3.5 4.3 0.00 0.47 0.47 98 1006.2
20260506165930 56 301 0.9 0.9 0.00 0.47 0.47 98 1006.4
20260506165428 56 216 4.3 5.2 0.00 0.47 0.47 98 1006.5
20260506164924 56 180 2.6 2.6 0.00 0.47 0.47 98 1006.4
20260506164421 56 228 3.5 6.1 0.00 0.47 0.47 97 1006.5
20260506163919 56 292 1.7 1.7 0.05 0.47 0.47 97 1006.5
20260506163413 56 259 5.2 6.1 0.05 0.47 0.47 97 1006.5
20260506162908 56 220 4.3 6.1 0.05 0.47 0.47 97 1006.3
20260506162407 56 215 4.3 5.2 0.00 0.46 0.46 97 1006.2
20260506161904 56 160 7.0 8.7 0.00 0.46 0.46 97 1006.4
20260506161402 55 239 2.6 5.2 0.00 0.46 0.46 97 1006.4
20260506160859 55 170 4.3 5.2 0.07 0.46 0.46 97 1006.9
20260506160355 55 190 4.3 5.2 0.07 0.46 0.46 97 1006.5
20260506155854 55 207 3.5 5.2 0.00 0.45 0.45 97 1006.7
20260506155351 55 141 0.9 1.7 0.00 0.45 0.45 97 1006.5
20260506153508 55 179 2.6 5.2 0.07 0.44 0.44 96 1006.5
20260506153005 55 180 3.5 7.8 0.14 0.44 0.44 96 1006.7
20260506152502 55 286 6.1 7.8 0.12 0.43 0.43 96 1006.9
20260506152000 55 163 4.3 5.2 0.12 0.42 0.42 96 1006.8
20260506151457 55 169 6.1 7.8 0.07 0.41 0.41 96 1006.7
20260506150955 55 148 2.6 2.6 0.12 0.41 0.41 96 1006.8
20260506150450 55 154 2.6 4.3 0.05 0.40 0.40 95 1006.7
20260506145948 55 127 5.2 6.1 0.00 0.39 0.39 95 1006.7
20260506145444 55 172 5.2 6.1 0.07 0.39 0.39 94 1006.5
20260506144942 55 188 7.8 7.8 0.07 0.39 0.39 94 1006.5
20260506144438 55 128 1.7 2.6 0.05 0.38 0.38 95 1006.7
20260506143937 55 159 3.5 4.3 0.05 0.38 0.38 95 1006.8
20260506143433 55 260 4.3 5.2 0.00 0.37 0.37 95 1006.8
20260506142931 55 175 3.5 5.2 0.00 0.37 0.37 95 1006.7
20260506142429 55 166 3.5 5.2 0.07 0.37 0.37 95 1006.7
20260506141927 55 182 1.7 1.7 0.07 0.37 0.37 95 1006.5
20260506141425 55 190 4.3 5.2 0.05 0.36 0.36 96 1006.7
20260506140923 55 175 2.6 5.2 0.05 0.36 0.36 96 1006.7
20260506140419 55 164 3.5 5.2 0.07 0.35 0.35 96 1006.8
20260506135916 55 162 4.3 5.2 0.12 0.35 0.35 96 1006.8
20260506135414 55 186 3.5 4.3 0.12 0.34 0.34 96 1006.8
20260506134909 54 145 4.3 5.2 0.12 0.33 0.33 96 1007.1
20260506134406 54 165 6.1 6.1 0.12 0.32 0.32 96 1007.0
20260506133903 54 161 3.5 4.3 0.14 0.31 0.31 96 1007.3
20260506133359 54 158 3.5 5.2 0.19 0.30 0.30 96 1007.3
20260506132856 54 159 5.2 7.0 0.17 0.29 0.29 96 1007.3
20260506132353 54 160 3.5 4.3 0.17 0.27 0.27 96 1007.4
20260506131852 54 171 3.5 4.3 0.24 0.26 0.26 96 1007.6
20260506131347 54 231 2.6 4.3 0.24 0.24 0.24 96 1007.7
20260506130845 55 165 2.6 4.3 0.28 0.23 0.23 96 1007.6
20260506130341 55 165 7.8 7.8 0.26 0.20 0.20 95 1007.6
20260506125839 55 264 1.7 1.7 0.19 0.18 0.18 95 1007.9
20260506125337 55 159 2.6 2.6 0.12 0.16 0.16 95 1007.6
20260506124835 55 174 2.6 4.3 0.19 0.15 0.15 95 1007.6
20260506124332 55 196 1.7 2.6 0.17 0.14 0.14 94 1007.4
20260506123829 55 149 5.2 6.1 0.12 0.12 0.12 94 1007.1
20260506123328 55 173 4.3 5.2 0.07 0.11 0.11 94 1007.1
20260506122825 55 182 4.3 6.1 0.05 0.10 0.10 95 1007.1
20260506122321 54 248 2.6 2.6 0.05 0.10 0.10 95 1007.2
20260506121820 54 272 0.9 0.9 0.00 0.09 0.09 95 1007.2
20260506121316 54 215 3.5 4.3 0.00 0.09 0.09 95 1007.2
20260506120814 54 288 0.0 0.0 0.07 0.09 0.09 95 1007.2
20260506120311 54 244 1.7 1.7 0.07 0.09 0.09 95 1007.6
20260506115809 54 324 0.9 1.7 0.00 0.08 0.08 94 1007.4
20260506115307 54 307 0.0 0.0 0.00 0.08 0.08 94 1007.6
20260506114804 54 234 2.6 2.6 0.00 0.08 0.08 93 1007.2
20260506114302 54 276 0.9 0.9 0.05 0.08 0.08 93 1007.5
20260506113800 54 308 0.9 0.9 0.05 0.08 0.08 94 1007.6
20260506113258 54 319 0.0 0.0 0.00 0.07 0.07 95 1007.5
20260506112754 54 339 0.0 0.0 0.00 0.07 0.07 95 1007.6
20260506112251 54 317 0.9 0.9 0.00 0.07 0.07 95 1007.7
20260506111748 54 332 0.0 0.0 0.00 0.07 0.07 94 1007.3
20260506111247 54 331 0.0 0.0 0.07 0.07 0.07 94 1007.6
20260506110743 54 322 0.0 0.9 0.00 0.06 0.06 93 1007.5
20260506110241 54 263 0.9 1.7 0.00 0.06 0.06 93 1007.5
20260506105737 54 288 0.9 0.9 0.07 0.06 0.06 93 1007.7
20260506105234 54 22 0.9 0.9 0.07 0.06 0.06 94 1007.7
20260506104732 53 171 2.6 2.6 0.05 0.05 0.05 96 1007.8
20260506104229 53 343 0.0 0.0 0.05 0.05 0.05 97 1007.7
20260506103726 53 295 0.9 0.9 0.12 0.05 0.05 97 1007.9
20260506103224 53 302 0.9 1.7 0.07 0.04 0.04 97 1007.6
20260506102721 53 327 0.0 0.0 0.05 0.03 0.03 97 1007.4
20260506102220 52 336 0.0 0.0 0.05 0.03 0.03 97 1007.5
20260506101716 52 335 0.0 0.0 0.07 0.02 0.02 97 1007.3
20260506101212 52 327 0.9 0.9 0.07 0.02 0.02 97 1007.4
20260506100711 51 346 0.0 0.0 0.00 0.01 0.01 97 1007.3
20260506100208 51 347 0.0 0.0 0.00 0.01 0.01 97 1007.2
20260506095707 51 343 0.0 0.0 0.00 0.01 0.01 97 1007.1
20260506095203 51 343 0.0 0.0 0.00 0.01 0.01 96 1007.3
20260506094700 51 342 0.0 0.0 0.00 0.01 0.01 96 1007.3
20260506094158 51 9 0.9 0.9 0.00 0.01 0.01 96 1007.2
20260506093657 51 341 0.9 0.9 0.00 0.01 0.01 96 1007.3
20260506093153 51 348 0.0 0.9 0.00 0.01 0.01 96 1007.1
20260506092651 50 355 0.9 0.9 0.00 0.01 0.01 96 1007.2
20260506092148 50 342 0.0 0.0 0.00 0.01 0.01 96 1007.4
20260506091646 50 333 0.0 0.0 0.00 0.01 0.01 96 1007.3
20260506091143 50 344 0.0 0.0 0.05 0.01 0.01 96 1007.4
20260506090641 50 334 0.0 0.0 0.00 0.00 0.00 96 1007.4
20260506090137 50 336 0.0 0.0 0.00 0.00 0.00 96 1007.6
20260506085634 50 328 0.0 0.0 0.00 0.00 0.00 95 1007.8
20260506085130 50 288 0.0 0.9 0.00 0.00 0.00 95 1007.6
20260506084627 50 10 0.0 0.0 0.00 0.00 0.00 95 1007.8
20260506084124 51 74 0.9 0.9 0.00 0.00 0.00 94 1008.0
20260506083621 51 330 0.0 0.0 0.00 0.00 0.00 94 1007.7
20260506083119 51 347 0.0 0.0 0.00 0.00 0.00 93 1007.9
20260506082615 51 342 0.0 0.0 0.00 0.00 0.00 93 1007.7
20260506082111 51 320 0.0 0.0 0.00 0.00 0.00 93 1007.7
20260506081609 51 337 0.0 0.0 0.00 0.00 0.00 92 1007.7
20260506081106 51 339 0.0 0.0 0.00 0.00 0.00 92 1007.5
20260506080604 51 340 0.0 0.0 0.00 0.00 0.00 92 1007.7
20260506073044 52 347 0.0 0.0 0.00 0.00 0.00 90 1007.7
20260506072541 52 334 0.0 0.9 0.00 0.00 0.00 90 1007.8
20260506072039 52 342 0.0 0.0 0.00 0.00 0.00 90 1007.6
20260506071537 52 338 0.0 0.0 0.00 0.00 0.00 91 1007.7
20260506071034 52 338 0.0 0.0 0.00 0.00 0.00 90 1008.0
20260506070531 52 337 0.0 0.0 0.00 0.00 0.00 90 1007.7
20260506062508 52 328 0.9 0.9 0.00 0.00 0.00 89 1008.5
20260506062005 52 4 0.0 0.0 0.00 0.00 0.00 90 1008.3
20260506061501 52 295 2.6 2.6 0.00 0.00 0.00 89 1008.6
20260506060959 52 108 1.7 1.7 0.00 0.00 0.00 89 1008.5
20260506060457 52 319 0.0 0.0 0.00 0.00 0.00 88 1008.7
20260506050925 51 15 0.9 0.9 0.00 0.00 0.00 88 1009.7
20260506050423 52 343 0.0 0.0 0.00 0.00 0.00 87 1009.9
20260506044914 52 355 0.0 0.9 0.00 0.00 0.00 88 1009.7
20260506044412 52 330 0.0 0.0 0.00 0.00 0.00 88 1009.7
20260506043909 52 16 0.0 0.0 0.00 0.00 0.00 89 1009.7
20260506043406 52 346 0.0 0.0 0.00 0.00 0.00 89 1009.4
20260506042904 52 18 1.7 1.7 0.00 0.00 0.00 89 1009.7
20260506042403 51 327 0.0 0.9 0.00 0.00 0.00 89 1009.5
20260506041901 51 7 0.0 0.0 0.00 0.00 0.00 89 1009.7
20260506041357 52 349 0.0 0.0 0.00 0.00 0.00 89 1010.0
20260506040855 52 334 0.0 0.0 0.00 0.00 0.00 88 1009.8
20260506040352 52 345 0.0 0.0 0.00 0.00 0.00 87 1010.0
20260506035848 52 354 0.0 0.0 0.00 0.17 0.17 87 1010.0
20260506035346 52 353 0.0 0.0 0.00 0.17 0.17 88 1010.1
20260506034843 53 349 0.0 0.0 0.00 0.17 0.17 89 1010.2
20260506034340 53 355 0.0 0.0 0.00 0.17 0.17 89 1010.1
20260506033837 53 8 0.9 0.9 0.00 0.17 0.17 89 1010.1
20260506033334 54 345 0.0 0.9 0.00 0.17 0.17 88 1010.0
20260506032831 54 339 0.0 0.0 0.00 0.17 0.17 88 1009.9
20260506032327 54 44 0.0 0.9 0.00 0.17 0.17 87 1009.8
20260506031825 54 357 0.9 0.9 0.00 0.17 0.17 86 1010.1
20260506031322 55 358 2.6 4.3 0.00 0.17 0.17 85 1010.1
20260506030819 55 37 2.6 2.6 0.00 0.17 0.17 85 1010.1
20260506030317 55 328 0.0 0.9 0.00 0.17 0.17 86 1010.1
20260506025814 55 38 1.7 2.6 0.00 0.17 0.17 87 1010.0
20260506025310 55 1 0.9 1.7 0.00 0.17 0.17 88 1009.9
20260506024807 55 17 0.0 0.9 0.00 0.17 0.17 89 1009.9
20260506024304 55 348 0.0 0.0 0.00 0.17 0.17 89 1010.0
20260506023800 56 18 0.9 0.9 0.00 0.17 0.17 89 1010.2
20260506023257 56 23 4.3 5.2 0.00 0.17 0.17 90 1010.0
20260506022753 56 11 1.7 1.7 0.00 0.17 0.17 91 1010.1
20260506022252 57 3 3.5 4.3 0.00 0.17 0.17 91 1009.9
20260506021749 57 32 1.7 2.6 0.00 0.17 0.17 91 1009.8
20260506021246 57 358 1.7 2.6 0.00 0.17 0.17 91 1009.5
20260506020743 58 338 0.0 0.0 0.00 0.17 0.17 91 1009.6
20260506020241 58 353 2.6 2.6 0.00 0.17 0.17 91 1009.5
20260506015738 58 27 1.7 2.6 0.00 0.17 0.17 92 1009.1
20260506015236 58 355 0.9 1.7 0.00 0.17 0.17 92 1009.6
20260506014732 58 5 0.0 0.9 0.00 0.17 0.17 92 1009.6
20260506014229 58 11 0.9 0.9 0.00 0.17 0.17 92 1009.6
20260506013726 58 335 0.0 0.0 0.00 0.17 0.17 92 1009.7
20260506013223 59 341 0.0 0.0 0.00 0.17 0.17 90 1009.5
20260506012719 59 330 0.0 0.0 0.00 0.17 0.17 89 1009.0
20260506012216 60 349 0.0 0.0 0.00 0.17 0.17 88 1009.0
20260506011714 60 356 0.0 0.0 0.00 0.17 0.17 89 1009.3
20260506011209 60 286 0.9 0.9 0.00 0.17 0.17 88 1009.1
20260506010708 60 336 0.0 0.0 0.00 0.17 0.17 89 1009.3
20260506010205 59 340 0.0 0.0 0.00 0.17 0.17 92 1009.0
20260506005702 58 352 0.9 0.9 0.00 0.17 0.17 94 1008.8
20260506005159 58 316 0.0 0.0 0.00 0.17 0.17 94 1008.7
20260506004655 58 321 0.0 0.0 0.00 0.17 0.17 94 1008.5
20260506004153 58 320 0.0 0.0 0.00 0.17 0.17 94 1008.3
20260506003649 58 321 0.0 0.0 0.00 0.17 0.17 94 1008.4
20260506003145 58 320 0.0 0.0 0.00 0.17 0.17 94 1008.5
20260506002641 58 321 0.0 0.0 0.00 0.17 0.17 94 1008.3
20260506002137 58 320 0.0 0.0 0.00 0.17 0.17 94 1008.3
20260506001633 58 320 0.0 0.0 0.00 0.17 0.17 94 1008.3
20260506001131 58 320 0.0 0.0 0.00 0.17 0.17 93 1008.1
20260506000628 58 320 0.0 0.0 0.00 0.17 0.17 93 1008.0
20260506000125 58 320 0.0 0.0 0.00 0.17 0.17 93 1008.0
20260505235623 59 320 0.0 0.0 0.00 0.17 0.17 94 1008.0
20260505235120 59 320 0.9 0.9 0.00 0.17 0.17 94 1008.0
20260505234617 59 318 0.0 0.0 0.00 0.17 0.17 93 1008.1
20260505234113 59 322 0.0 0.0 0.00 0.17 0.17 93 1008.0
20260505233611 59 323 0.0 0.0 0.00 0.17 0.17 93 1007.9
20260505233108 59 321 0.0 0.0 0.00 0.17 0.17 93 1007.9
20260505232606 59 326 0.0 0.0 0.00 0.17 0.17 92 1007.8
20260505232103 60 348 0.0 0.0 0.00 0.17 0.17 92 1007.8
20260505231600 60 348 0.0 0.0 0.00 0.17 0.17 91 1008.0
20260505231059 60 320 0.0 0.0 0.00 0.17 0.17 91 1007.8
20260505230556 60 249 1.7 1.7 0.00 0.17 0.17 87 1008.1
20260505230052 60 327 0.0 0.9 0.00 0.17 0.17 88 1007.8
20260505225549 60 311 0.9 0.9 0.00 0.17 0.17 88 1008.0
20260505225045 60 324 0.0 0.0 0.00 0.17 0.17 88 1007.9
20260505224542 62 344 0.0 0.0 0.07 0.17 0.17 82 1007.8
20260505224040 62 82 0.0 0.9 0.07 0.17 0.17 81 1007.7
20260505223537 63 147 2.6 4.3 0.00 0.16 0.16 78 1008.2
20260505223033 63 255 0.9 1.7 0.00 0.16 0.16 77 1008.2
20260505222529 62 283 1.7 1.7 0.00 0.16 0.16 78 1008.0